RH
99 98 98 98 99 99 99 99 99 99 99 100 100 99 100 99 100 100 99 100 99 100 100 100 101 98 101 99 98 101 90 74 71 92 90 39 16 23 21 16 16 25 32 35 35 35 39 40 38 38 36 33 36 34 29 33 30 27 38 40 32 27 28 29 27 22 19 17 13 13 12 12 13 10 32 67 83 90 97 98 99 98 95 90 86 89 96 99
98 97 97 97 98 98 98 99 97 97 98 98 100 100 100 100 100 99 100 100 99 101 99 100 99 98 101 95 97 100 83 77 89 94 64 21 20 30 23 19 21 26 29 31 32 33 39 40 39 39 37 36 34 32 32 32 31 35 39 34 30 28 28 26 24 19 14 14 12 14 13 11 15 7 25 70 87 92 99 98 99 100 98 96 93 95 99 100
99 99 99 98 100 99 99 99 98 98 98 98 98 99 100 99 100 100 100 99 100 100 98 99 98 100 100 91 91 87 83 83 73 59 38 21 24 28 25 22 21 25 25 25 27 27 30 33 36 37 39 41 37 35 34 31 32 37 37 32 30 27 24 22 19 16 14 14 13 14 13 14 13 8 35 75 88 95 100 99 99 100 100 99 98 96 98 99
100 99 100 99 99 99 100 99 99 100 99 100 98 98 100 100 100 100 100 100 101 98 98 99 98 101 94 81 76 73 79 68 40 29 29 25 24 26 27 22 21 23 23 22 22 23 24 28 34 36 38 40 39 37 35 34 31 32 35 34 30 23 21 20 15 16 15 13 14 13 14 15 9 19 62 83 80 89 91 89 93 97 101 100 97 94 96 98
100 100 100 99 99 99 100 99 100 100 98 98 96 96 98 99 99 99 99 99 98 96 98 98 98 102 87 67 67 72 61 32 23 28 21 19 23 25 26 26 25 23 25 23 22 24 24 30 36 36 37 39 39 36 38 37 28 29 34 32 29 23 22 19 14 16 15 13 14 14 15 13 9 24 70 85 68 72 79 79 84 91 97 96 94 93 96 98
99 100 99 99 99 98 99 99 100 99 97 96 95 95 95 98 98 97 98 97 98 95 97 97 96 99 80 59 63 63 37 10 15 20 11 16 23 22 25 33 32 28 29 24 22 25 25 32 34 35 38 37 39 38 40 36 26 31 35 32 29 25 22 18 16 17 16 16 14 15 14 12 12 10 47 84 68 63 80 81 81 88 91 89 89 93 98 99
100 100 100 100 100 99 100 99 99 99 98 96 95 97 97 97 98 99 99 98 97 93 97 97 94 97 74 56 67 66 43 21 12 9 13 23 25 21 24 36 38 34 31 23 25 27 27 31 32 38 38 33 39 38 36 33 27 31 35 32 28 25 23 19 18 18 17 16 14 15 12 11 14 6 35 74 66 70 90 87 83 87 87 87 90 93 97 97
100 99 100 100 99 100 99 99 99 99 99 96 92 96 97 95 96 98 98 97 89 85 96 96 94 97 74 61 65 56 40 24 14 18 28 32 27 21 25 37 41 36 32 24 24 26 28 30 29 33 33 33 37 33 30 30 29 31 33 29 25 24 24 21 20 19 17 16 13 13 12 11 11 13 34 53 63 86 96 89 88 88 90 92 93 94 94 94
100 100 100 100 100 100 99 100 99 97 100 96 90 91 88 86 88 88 90 91 83 85 96 96 97 89 74 79 63 30 19 15 23 32 35 36 27 22 28 37 41 38 32 25 21 22 27 28 28 28 28 32 31 29 29 28 31 33 31 27 24 24 22 20 18 17 16 14 12 10 11 11 10 24 37 47 76 97 94 93 93 90 94 95 94 94 92 92
99 99 98 97 98 99 100 99 98 98 100 98 97 91 79 78 80 76 80 78 71 80 91 95 100 84 74 81 52 23 19 17 27 31 30 35 27 25 33 35 39 40 33 26 20 20 25 26 28 26 26 30 26 28 30 28 31 29 27 26 24 22 18 17 14 15 13 11 13 9 10 11 13 25 27 50 90 97 94 97 92 92 95 94 94 94 92 91
96 96 91 91 95 98 100 97 96 95 95 99 99 81 64 65 65 61 72 74 60 69 91 100 97 87 87 84 51 24 17 18 26 27 28 31 26 26 29 29 35 38 33 28 22 19 21 21 24 24 25 26 23 25 27 26 23 19 19 18 18 18 16 16 12 14 12 10 13 10 11 10 12 14 12 53 97 95 96 97 91 95 96 94 95 95 95 93
80 88 83 85 91 94 98 97 94 92 93 97 91 75 61 55 48 44 65 74 56 61 91 101 93 89 91 85 60 26 12 24 29 25 28 25 22 24 24 26 29 32 32 28 25 20 17 18 21 23 24 24 25 24 21 20 17 15 16 15 18 18 15 17 14 13 11 10 13 11 13 11 14 9 11 65 102 94 97 97 94 96 95 97 96 95 97 94
52 70 75 79 80 81 90 95 94 93 96 97 95 90 69 46 36 38 63 74 59 71 96 99 94 91 81 62 38 15 9 22 26 23 24 19 21 24 24 27 26 28 30 26 25 21 16 17 19 23 25 26 29 24 19 19 17 16 16 15 19 20 19 18 15 14 10 11 12 11 15 19 22 10 19 77 103 94 100 98 96 96 94 97 95 97 97 95
36 52 68 76 74 74 77 78 85 94 99 98 95 83 51 30 27 33 62 72 59 78 99 96 92 91 84 54 17 9 14 17 22 19 14 15 23 27 26 27 28 29 30 29 25 19 17 17 19 22 22 25 26 22 23 23 22 20 16 19 23 22 26 22 18 17 10 13 13 9 17 22 20 9 30 87 100 93 101 97 96 97 95 97 95 96 96 94
37 45 62 71 67 67 70 72 83 97 100 89 73 53 30 22 27 37 57 63 59 80 95 89 90 97 94 60 20 20 28 28 30 21 16 20 22 26 27 26 29 30 31 31 25 18 17 17 20 23 23 23 21 21 28 28 32 31 17 27 37 26 28 25 17 20 12 12 13 10 18 19 15 11 35 89 100 92 99 95 94 96 96 97 96 96 95 92
45 52 65 68 57 62 80 88 92 100 96 72 46 32 29 33 44 53 54 58 72 92 95 85 92 96 74 42 24 26 32 33 32 27 28 26 23 26 24 24 28 29 29 27 22 18 17 19 21 26 24 21 22 23 30 34 43 49 28 27 40 28 26 25 15 19 15 12 13 11 17 17 16 13 22 71 100 95 98 95 92 96 96 97 96 96 94 92
56 61 70 65 58 69 87 96 99 99 83 55 31 25 41 57 61 57 60 74 88 94 92 90 98 87 47 24 25 28 29 30 28 30 30 26 29 27 21 26 27 24 25 20 18 17 17 21 22 31 33 27 32 31 32 38 43 53 40 29 40 34 26 25 18 18 15 13 16 13 16 14 16 15 12 54 97 98 97 98 93 95 96 96 96 95 94 94
66 71 70 60 62 78 90 98 96 83 63 45 33 34 56 77 72 64 74 88 93 91 89 94 89 58 30 27 29 30 29 26 25 25 25 28 36 31 22 26 27 24 26 23 22 19 19 26 27 36 38 28 32 33 36 48 45 41 34 28 40 38 29 29 23 20 17 16 19 17 20 17 16 18 13 44 91 100 96 97 94 95 95 96 97 96 95 96
76 77 65 58 67 85 95 96 86 66 49 37 37 55 75 86 80 74 87 96 90 73 62 77 68 28 22 34 32 31 25 21 22 21 25 34 38 34 25 24 27 28 29 31 30 24 25 30 31 35 36 34 36 32 32 43 39 30 28 31 36 32 27 27 22 22 19 16 21 18 20 22 17 18 15 30 77 99 94 95 96 95 96 96 97 97 96 98
81 72 57 58 70 88 96 91 77 57 46 40 45 65 71 71 75 71 83 98 91 64 46 62 65 38 35 38 30 29 23 20 23 22 27 34 34 33 30 27 28 30 33 39 36 30 31 34 36 38 39 45 47 39 33 34 31 25 27 31 31 29 26 23 21 22 19 18 26 24 22 25 20 21 20 23 65 98 94 94 97 95 96 96 98 99 98 99
79 65 57 63 71 85 91 82 65 48 50 50 46 58 52 47 61 59 58 67 65 62 56 55 57 50 41 33 29 28 27 28 26 24 25 28 31 30 32 32 33 40 42 41 37 28 31 38 41 44 45 51 56 51 40 32 30 26 28 30 30 32 27 21 20 20 19 21 33 33 26 27 23 23 24 27 61 93 94 92 94 94 95 95 97 98 98 99
83 71 61 61 67 78 82 69 53 48 53 47 45 64 58 41 46 46 47 54 50 50 56 53 52 51 41 35 35 30 34 37 26 22 22 23 30 29 31 35 39 49 44 36 37 31 34 42 38 41 47 48 55 59 47 35 34 32 32 33 33 33 29 27 26 25 24 24 33 35 27 25 24 24 26 31 51 71 82 86 84 88 94 95 97 98 99 100
91 84 67 62 66 71 69 54 48 56 56 51 62 72 56 40 46 48 50 60 55 46 51 56 56 56 49 40 37 34 39 40 29 23 23 24 31 30 29 34 38 43 40 36 42 41 43 45 36 39 44 37 39 51 48 37 38 41 36 34 35 31 28 33 34 33 30 27 30 29 28 31 28 29 30 30 39 46 60 75 76 81 90 94 94 93 97 99
86 85 72 69 78 70 53 48 56 62 53 53 63 57 44 46 55 56 55 61 61 53 48 47 50 52 48 36 32 37 37 36 31 23 21 24 28 28 26 32 36 36 36 37 42 45 42 37 34 38 40 34 31 38 41 33 40 54 47 35 34 30 28 31 30 34 36 37 36 29 37 47 37 32 32 33 39 33 40 65 79 87 91 93 93 90 91 95
78 90 76 74 92 68 39 57 69 56 51 52 50 45 43 47 53 55 59 63 60 54 43 37 42 41 35 31 31 37 37 34 32 23 21 23 23 27 26 28 33 34 35 37 39 42 39 35 35 34 34 33 30 34 41 38 40 52 50 38 32 30 30 30 28 32 38 41 38 29 41 56 46 33 32 40 44 30 33 64 88 97 98 95 95 92 90 92
82 98 81 82 101 65 38 66 65 45 53 54 43 43 42 45 54 53 62 76 66 51 41 33 34 30 26 34 37 35 30 29 29 24 22 21 19 24 28 28 30 32 35 36 37 38 35 32 31 32 36 35 31 35 43 42 36 40 45 40 31 28 31 32 30 32 39 43 39 33 36 45 40 30 34 51 61 52 52 75 94 100 100 96 93 92 92 92
91 98 86 89 101 82 66 70 59 51 56 46 37 40 42 46 48 44 57 73 60 44 38 30 27 23 22 33 36 27 19 21 27 27 22 20 19 20 28 32 29 28 32 36 41 39 33 31 30 32 36 35 33 34 38 40 34 37 45 41 33 31 32 35 34 35 43 45 47 51 38 31 37 36 40 60 75 80 80 86 99 101 98 96 92 91 92 91
95 97 90 90 98 100 91 84 83 73 48 33 37 42 45 45 43 51 57 46 30 28 30 27 23 19 22 32 32 23 19 20 24 26 23 20 20 21 28 33 29 28 29 36 45 40 31 32 32 31 33 34 33 33 36 34 27 34 45 39 29 29 31 33 37 43 47 37 40 54 38 26 45 53 56 70 77 82 90 94 99 101 98 96 93 91 90 89
92 97 95 93 94 89 87 96 94 63 32 30 42 46 43 37 39 55 59 38 24 23 23 23 19 16 25 36 33 28 26 23 23 26 24 19 20 23 28 30 28 27 24 29 41 36 28 31 30 28 32 33 29 29 33 29 25 31 39 35 30 36 41 40 42 41 40 37 35 47 39 25 44 63 73 82 74 70 86 97 98 99 98 94 93 93 91 89
92 100 95 95 91 78 84 91 65 37 33 39 47 46 36 43 58 58 50 41 34 27 22 21 18 15 22 30 31 31 29 24 25 26 24 23 22 22 24 26 29 34 31 27 33 32 27 29 29 26 28 27 24 26 27 25 24 25 29 29 31 45 48 52 63 47 34 41 39 41 44 29 36 65 78 80 73 68 80 96 99 99 98 94 92 93 92 89
87 88 89 98 96 86 85 72 44 36 40 40 47 41 26 42 72 68 49 39 37 33 24 18 16 17 19 20 24 29 28 24 24 26 27 27 26 25 27 29 31 38 39 32 33 37 30 26 27 26 27 23 18 21 24 23 21 22 31 32 31 45 45 47 65 52 36 46 46 46 46 29 31 59 75 78 81 80 80 90 98 98 98 96 91 91 91 89
70 64 73 89 97 98 81 53 41 43 39 42 50 45 36 38 52 63 54 38 36 36 26 19 18 20 21 18 22 29 27 23 25 27 29 29 33 33 31 36 40 40 47 48 44 44 37 30 27 25 27 23 16 23 28 25 23 24 36 38 33 42 41 42 54 50 45 48 48 52 46 32 39 60 79 86 85 87 87 86 89 94 96 95 91 90 90 88
51 46 50 63 80 85 66 47 48 48 44 50 52 53 56 46 41 53 52 41 38 31 24 24 23 22 22 19 23 29 27 26 28 28 29 31 36 35 30 39 42 39 52 59 47 43 44 42 32 22 24 22 18 25 27 28 31 27 31 36 38 43 41 48 58 52 47 42 40 49 41 37 51 64 81 89 84 91 96 87 84 89 93 92 90 89 89 89
38 39 39 49 61 57 52 54 57 59 54 50 51 48 39 35 43 52 53 53 46 29 24 28 25 22 22 20 21 26 31 37 35 30 31 33 38 41 37 35 36 38 49 52 46 46 47 47 38 24 23 22 19 20 22 30 34 28 30 31 36 47 46 49 52 41 37 40 43 47 38 43 64 71 77 84 85 94 99 91 88 90 89 89 89 89 89 90
32 36 39 48 53 46 48 56 61 66 59 54 59 49 32 36 49 55 56 53 42 32 31 29 23 23 29 28 23 23 30 41 47 43 40 38 42 50 46 35 35 41 44 47 51 46 38 41 41 29 23 21 18 19 20 27 31 30 32 27 27 40 44 45 50 50 49 47 48 53 52 61 78 75 71 79 87 94 95 93 93 93 92 90 92 92 91 91
29 37 49 51 50 47 42 48 63 64 55 60 58 47 52 53 42 48 54 42 33 34 35 33 28 27 35 37 29 22 27 44 54 52 49 44 40 47 46 36 35 35 35 48 56 45 35 40 40 30 25 22 19 21 20 21 31 36 29 26 29 32 36 42 49 58 58 44 48 70 79 83 84 74 69 79 89 93 93 94 95 96 96 95 96 96 95 95
37 50 68 59 49 46 38 46 63 57 52 60 49 47 70 60 37 48 49 34 36 34 31 41 40 28 30 40 38 26 29 46 50 47 56 57 48 47 46 39 36 30 28 40 49 45 39 41 41 30 21 22 22 20 20 18 26 34 29 29 31 28 37 49 53 60 56 43 56 81 90 90 86 81 80 84 90 94 94 96 97 97 96 96 98 98 97 98
66 76 79 64 48 43 46 54 60 59 63 70 69 73 75 53 39 47 39 33 43 37 30 41 43 33 31 41 48 38 32 38 45 54 63 61 52 50 52 49 44 40 33 29 37 43 37 38 50 42 22 26 32 23 22 27 25 30 34 30 29 35 43 45 47 55 49 46 67 81 84 89 89 90 92 88 90 93 92 94 97 96 96 97 98 97 96 97
87 86 73 63 53 46 53 57 58 65 65 67 78 74 57 49 51 50 41 41 44 39 40 41 38 41 42 42 47 46 39 35 43 56 56 51 49 47 54 56 46 47 42 27 33 49 43 37 50 50 27 25 38 35 38 43 29 22 28 27 34 52 54 43 44 50 45 55 79 81 77 86 90 93 93 87 91 94 91 95 97 97 98 98 98 98 98 97
91 83 67 64 57 49 54 58 68 82 71 63 75 68 53 56 58 49 47 48 42 41 49 45 37 44 49 46 41 38 39 42 51 59 53 52 54 47 53 58 49 51 49 37 43 56 50 40 47 59 46 33 40 44 49 52 35 23 27 30 39 49 46 42 46 48 49 61 77 78 79 87 91 93 94 93 96 97 94 96 97 96 98 99 99 99 98 98
90 78 68 64 56 53 63 68 77 87 79 74 79 74 67 63 59 56 52 49 46 43 46 45 41 46 48 45 41 35 36 43 55 64 58 53 55 52 52 56 53 53 51 47 49 52 52 49 51 63 58 45 46 47 48 52 48 46 47 49 56 54 46 44 46 53 60 63 71 79 82 87 91 93 96 99 99 98 96 96 97 98 98 99 100 98 98 99
89 78 67 63 59 59 71 80 83 86 86 86 78 69 67 62 59 60 50 46 48 43 41 41 41 46 46 42 41 38 36 38 48 59 58 55 58 54 49 55 57 54 55 56 53 57 67 63 53 57 58 49 47 46 45 47 52 60 66 71 75 66 56 51 50 59 63 59 69 78 71 76 90 94 94 97 98 99 97 95 98 100 98 99 100 98 98 99
84 76 64 67 65 62 74 84 87 87 86 85 75 62 61 64 62 58 51 51 51 45 43 43 39 39 41 40 39 42 41 37 45 58 60 60 60 52 53 64 60 53 57 61 58 63 74 66 54 61 70 66 57 50 45 47 56 63 68 77 78 68 67 69 68 73 71 67 71 66 59 75 94 95 92 92 95 98 97 95 98 100 100 99 99 99 99 99
84 77 72 73 61 58 73 78 76 81 85 87 81 68 62 64 62 57 56 58 55 50 49 49 45 41 44 46 45 51 50 38 40 55 59 60 56 49 57 67 61 56 56 56 56 58 65 69 62 61 70 72 68 61 52 53 66 72 74 80 78 74 75 71 65 64 62 67 69 58 62 85 96 94 92 89 92 97 100 98 97 98 99 98 97 96 96 95
79 75 76 71 58 63 78 82 78 79 84 86 81 74 70 65 59 55 57 60 55 51 52 53 51 50 55 59 55 58 59 46 43 53 59 61 56 51 57 62 66 72 68 65 66 64 70 79 71 65 73 76 76 74 67 64 66 69 76 83 83 80 69 55 55 53 48 59 67 62 73 90 96 96 94 92 96 100 100 99 97 97 96 94 93 91 90 89
73 74 76 66 63 69 75 85 90 81 79 81 73 69 71 68 60 53 54 56 50 48 52 53 53 53 56 64 68 66 65 61 58 59 63 65 60 56 58 60 67 73 72 74 77 77 86 91 83 81 84 80 79 78 73 72 71 73 83 89 93 92 77 65 67 61 57 66 70 74 87 95 98 101 97 97 100 99 99 99 98 96 94 92 91 88 86 85
66 68 77 69 66 73 71 76 85 75 69 75 69 61 66 71 66 54 50 52 50 50 54 53 54 56 55 63 70 65 65 68 66 64 67 70 69 64 58 58 61 64 70 75 77 84 93 88 84 91 90 85 88 83 77 80 84 90 96 95 96 98 90 80 74 66 66 68 65 78 96 99 99 100 98 100 100 98 98 97 95 95 93 91 90 87 86 85
58 57 70 64 56 67 65 60 76 81 69 70 70 63 65 70 68 59 53 56 57 54 55 57 57 57 58 62 60 56 62 66 61 64 67 68 73 69 59 58 56 55 69 78 78 89 98 88 83 90 90 88 92 90 87 89 90 92 96 94 96 99 97 94 92 85 79 70 66 82 97 99 99 100 99 99 95 94 94 90 88 89 87 87 88 86 87 86
63 59 66 62 56 70 72 65 80 84 69 71 71 61 61 64 62 59 55 60 66 61 56 57 55 56 63 66 59 54 60 59 54 60 62 60 69 72 67 67 58 49 65 83 83 86 91 89 90 93 89 86 90 90 88 89 90 89 90 91 93 95 96 97 99 96 89 84 85 93 98 99 99 99 98 93 86 85 84 80 81 81 79 82 84 83 84 84
64 59 66 71 69 79 84 79 81 73 65 73 64 51 61 62 55 57 57 56 59 57 54 50 49 58 67 66 59 51 52 54 48 48 52 53 62 72 74 76 69 56 66 84 84 78 79 83 89 96 93 88 91 93 88 88 91 88 89 93 91 92 94 95 98 99 97 97 96 94 97 100 98 96 91 83 78 79 79 77 78 78 78 80 81 81 82 84
63 60 72 78 70 71 73 74 79 70 62 67 62 57 63 57 50 58 59 54 53 52 51 46 48 63 69 64 62 52 51 61 55 46 49 49 53 66 72 76 76 67 72 86 86 82 87 87 87 94 97 93 93 94 93 91 87 84 91 98 97 96 95 94 96 98 98 99 97 96 99 100 98 93 85 78 76 76 77 77 75 75 78 81 83 84 85 85
65 63 75 77 66 65 69 73 80 73 57 58 68 71 64 56 60 62 52 51 55 49 47 48 50 57 57 55 57 49 46 57 55 46 46 44 48 59 63 65 68 61 67 89 96 92 92 89 87 93 97 97 98 96 93 90 85 85 91 96 98 99 96 95 96 96 97 99 98 98 98 98 96 91 86 84 84 84 86 85 80 77 80 84 86 89 90 89
Wind_Speed
10 11 11 11 12 12 12 12 12 13 13 13 13 13 13 13 13 13 13 13 14 14 14 15 15 15 15 16 16 16 19 21 21 14 9 12 11 8 8 5 5 15 14 13 16 14 9 6 6 7 7 3 1 2 2 0 2 3 3 3 2 4 4 5 6 5 3 5 7 8 8 6 8 8 3 3 6 4 3 5 4 5 6 6 14 26 27 25
10 10 11 11 11 11 12 12 12 13 13 13 13 13 13 13 13 13 14 14 14 14 14 15 15 15 15 15 15 16 20 20 18 15 10 7 9 6 5 6 10 18 17 15 16 15 9 4 5 7 5 2 1 1 1 1 2 2 3 2 4 5 4 5 5 3 2 5 9 9 6 5 7 5 3 0 1 4 3 3 5 7 8 10 17 25 25 24
10 11 11 11 11 12 12 12 12 13 13 13 13 13 14 13 14 13 14 14 14 14 15 15 15 15 15 15 14 16 19 15 10 8 3 8 13 7 6 9 13 21 18 13 14 12 9 9 11 8 4 2 1 2 2 1 1 2 4 2 6 5 4 4 4 5 6 6 8 9 5 6 8 5 2 1 2 1 2 3 5 8 10 11 14 20 22 22
11 11 11 11 12 12 12 12 13 13 13 13 13 13 14 14 14 13 14 14 14 14 14 15 15 15 15 14 13 14 14 8 3 3 3 8 15 6 9 10 14 22 15 9 10 8 8 13 12 5 4 2 1 2 3 2 2 2 3 5 5 3 3 5 5 6 7 5 5 7 8 8 8 3 1 3 3 3 6 7 6 9 14 15 15 17 18 18
11 11 11 11 12 12 12 13 13 13 14 14 14 14 14 14 13 14 14 14 14 14 14 15 15 15 15 13 11 11 8 4 2 4 7 10 15 4 12 14 16 18 10 7 10 10 10 11 7 4 4 2 0 2 2 4 3 2 5 7 4 1 3 5 5 6 7 4 5 7 7 7 6 4 0 5 5 5 5 7 7 9 16 17 17 17 14 14
11 11 11 12 12 12 13 13 13 13 13 14 14 14 14 14 14 14 13 13 14 13 14 14 15 15 14 12 8 6 3 1 5 6 10 12 13 2 15 17 16 16 10 11 13 11 8 7 5 3 3 2 3 3 3 3 2 2 6 4 3 4 4 5 5 8 7 4 6 6 3 4 5 7 4 6 8 7 3 4 8 9 13 15 16 17 14 14
12 12 12 12 12 13 13 13 13 13 14 14 14 14 14 14 14 14 13 13 13 13 14 14 15 14 12 10 4 4 3 5 11 9 12 11 9 2 17 17 15 16 12 13 13 8 6 7 5 4 4 2 3 3 3 1 1 4 5 3 3 5 6 7 7 8 7 5 8 5 4 5 5 6 2 5 9 5 2 5 11 12 12 13 14 15 14 14
12 12 12 13 13 13 13 13 14 14 14 14 14 14 14 14 14 14 14 13 13 13 13 13 14 11 11 9 3 3 1 7 11 10 10 7 1 8 20 17 15 16 13 13 12 8 6 7 5 4 4 2 4 3 3 1 1 6 6 3 3 5 6 7 6 9 9 7 7 3 6 8 6 4 2 6 8 1 5 7 11 14 14 13 13 14 12 12
13 13 13 13 13 14 14 14 14 14 14 14 15 14 14 15 14 14 14 13 13 12 12 13 12 9 8 6 4 3 4 5 7 8 5 1 6 15 20 16 17 16 12 11 11 10 6 5 6 5 4 4 4 3 2 2 2 6 6 4 4 5 6 5 6 9 8 6 2 3 10 8 3 3 3 7 3 3 7 10 10 13 16 14 12 13 13 13
14 14 14 14 14 14 14 14 14 14 15 14 14 15 15 15 14 14 13 13 12 12 11 11 11 8 6 3 4 2 5 3 4 7 8 6 9 17 18 13 17 16 10 8 10 11 7 6 6 4 5 3 3 3 3 5 4 4 4 5 6 7 7 4 5 8 6 5 3 5 11 6 0 2 4 6 3 6 8 11 11 13 14 14 12 11 12 14
14 14 14 14 14 15 15 15 15 15 15 15 15 15 15 15 14 13 13 13 12 11 9 8 9 5 3 3 4 3 5 2 1 6 10 9 9 12 13 9 14 15 9 6 9 11 6 6 8 4 1 2 2 2 2 4 3 3 3 5 7 5 6 4 6 8 3 5 5 6 8 6 1 3 6 5 6 7 10 13 14 13 11 11 11 10 9 11
14 14 15 15 15 15 15 15 15 15 15 15 15 16 16 16 15 14 13 13 12 10 7 7 6 2 2 2 5 9 5 2 3 1 2 1 2 3 7 7 10 13 11 6 7 12 8 7 8 4 2 3 2 0 2 3 1 4 3 3 7 6 6 5 5 5 2 4 4 6 5 8 2 6 7 4 8 7 9 13 13 11 9 9 10 9 8 9
14 15 16 15 16 15 16 16 15 16 15 15 16 16 17 17 17 16 15 14 12 9 5 5 3 1 1 1 7 11 9 8 9 10 12 14 14 10 8 9 10 12 13 8 4 7 11 9 6 5 2 4 2 2 0 0 1 4 1 1 5 7 6 6 3 2 1 4 4 6 3 7 7 8 7 4 10 9 9 12 12 9 6 7 8 7 8 9
15 16 16 16 16 16 16 16 16 16 16 16 16 16 18 18 17 17 15 13 10 6 4 3 2 3 2 5 12 13 11 13 16 19 21 19 14 8 7 10 11 11 13 12 4 3 10 11 2 1 1 2 2 3 4 4 3 2 2 1 3 2 5 8 4 1 1 3 4 6 3 6 10 9 4 6 9 11 11 12 12 10 7 7 8 8 9 10
15 16 17 17 17 17 17 17 16 16 16 17 17 18 19 18 17 15 13 9 5 2 3 3 4 3 1 8 12 8 6 9 14 18 19 19 14 8 8 11 12 13 12 11 7 4 6 10 1 2 3 2 2 3 4 4 3 2 1 3 3 1 4 10 6 0 1 5 3 5 2 5 9 7 3 6 7 9 10 11 12 12 10 8 7 9 10 10
16 17 17 17 18 18 17 17 17 17 17 18 18 19 19 16 12 9 6 2 3 4 5 3 3 3 0 5 5 1 4 6 8 9 8 15 17 10 7 9 8 10 9 6 6 3 3 6 1 2 1 2 2 2 2 3 4 3 1 3 3 1 3 5 5 3 1 3 4 3 2 4 7 5 2 5 7 7 8 10 12 12 12 11 8 8 10 9
16 17 17 18 18 18 17 17 17 17 18 19 19 19 13 10 8 4 3 5 5 5 6 2 2 3 3 6 4 3 4 3 3 5 4 10 17 12 6 6 4 5 7 3 4 4 2 3 1 1 1 1 2 3 2 2 4 3 2 1 3 3 2 2 4 6 5 4 5 4 1 5 10 6 2 5 8 7 8 10 12 11 11 10 9 9 9 7
16 17 18 18 18 18 18 17 18 18 19 20 19 14 6 8 8 5 9 10 7 5 3 0 1 1 4 4 3 3 4 6 7 10 9 8 14 14 5 4 5 7 5 2 2 2 0 1 1 1 2 1 3 4 3 4 3 2 1 0 3 3 3 2 3 5 6 6 5 6 4 7 11 8 3 6 8 8 10 10 11 11 11 10 10 10 7 5
16 17 18 18 18 18 18 17 18 19 19 20 15 6 6 8 7 6 8 8 6 3 2 2 3 2 3 4 4 6 9 10 10 10 7 5 10 12 4 3 6 6 4 2 0 2 2 1 3 1 2 2 4 5 6 7 6 6 4 3 3 4 5 5 4 5 3 5 6 6 6 7 9 9 5 6 8 9 10 8 8 9 9 9 8 8 6 6
16 17 17 18 19 17 18 17 17 20 19 17 10 4 5 4 4 2 0 3 4 5 4 5 7 5 7 6 3 7 11 8 4 3 2 4 9 9 3 2 4 4 2 3 2 2 4 3 2 4 5 5 7 7 7 6 5 5 3 2 4 5 6 3 3 6 2 1 7 6 6 7 8 10 7 7 7 9 10 7 8 9 9 9 8 9 7 6
16 17 17 18 19 18 19 17 18 20 14 10 8 4 2 1 2 2 3 5 9 10 10 11 12 10 13 10 2 5 7 4 3 3 4 4 9 8 1 1 4 0 2 3 3 1 4 4 6 6 8 7 6 6 6 5 3 2 2 3 4 5 6 3 3 7 3 3 6 3 3 8 9 10 7 6 7 10 13 11 11 12 10 9 8 10 8 7
17 17 18 18 19 19 18 18 20 15 6 6 8 3 2 1 1 3 2 5 9 11 13 14 10 11 18 16 9 1 3 3 7 6 7 6 6 6 3 4 5 4 2 3 3 1 2 3 7 7 8 6 4 5 6 4 3 2 2 1 4 4 4 5 4 4 1 3 4 5 5 9 11 11 7 6 9 11 14 15 15 15 13 10 11 11 9 9
16 17 18 18 19 20 19 20 17 6 3 9 7 1 1 2 3 4 2 3 7 6 9 9 6 9 12 9 6 8 4 5 6 6 8 11 5 5 5 4 6 4 3 4 4 3 1 5 7 7 7 6 3 3 7 4 1 2 3 2 4 2 1 4 5 4 3 2 5 6 6 8 9 8 6 6 8 9 12 14 11 11 12 11 12 12 12 11
16 17 18 19 20 19 19 18 8 1 8 14 6 1 1 6 6 1 2 2 5 4 5 8 6 7 8 4 9 13 4 5 5 4 10 14 4 3 6 5 5 4 3 6 7 5 6 6 4 6 6 7 4 2 6 3 2 3 5 5 5 3 4 7 4 5 6 4 4 3 4 6 5 5 6 6 5 8 9 7 4 5 8 9 10 11 12 12
17 17 18 20 19 20 19 11 1 2 14 11 1 1 5 11 8 2 3 2 4 6 4 4 3 5 6 5 11 12 2 3 7 6 10 15 8 4 3 3 4 5 7 6 6 4 8 5 5 6 3 5 5 3 4 6 3 4 5 9 9 7 8 9 3 4 5 5 3 1 3 5 5 4 6 6 5 8 5 4 6 7 9 11 11 12 12 11
17 17 18 18 19 21 15 3 2 11 14 3 3 4 9 13 8 4 3 4 3 5 2 1 1 3 4 4 7 6 2 3 9 9 9 14 13 6 3 2 1 4 6 5 4 3 4 3 6 6 5 5 4 4 5 7 4 3 5 10 11 9 8 8 2 3 0 3 3 3 4 5 6 4 6 6 5 7 4 3 7 7 10 12 12 11 12 11
17 17 18 17 18 18 9 4 11 13 5 1 2 8 11 12 5 6 3 6 3 4 0 1 0 2 3 5 7 5 3 4 3 7 10 13 11 5 4 4 1 2 4 4 1 3 3 5 5 5 5 5 3 4 6 8 7 3 5 7 9 8 8 6 4 4 4 3 4 4 4 3 6 4 7 6 4 6 5 2 7 9 10 12 12 12 12 12
17 17 17 17 16 14 9 10 12 7 2 3 7 9 12 11 1 5 4 4 2 2 2 1 1 3 1 4 6 3 3 2 2 2 6 10 8 4 4 7 6 5 4 6 3 4 4 6 7 7 5 4 5 5 7 9 5 6 6 6 7 7 7 5 6 4 3 1 5 5 2 2 5 5 6 4 3 5 5 2 5 10 11 10 11 11 12 12
18 17 16 17 16 14 9 9 9 6 5 7 8 10 11 7 2 4 4 1 3 2 2 1 0 0 3 2 4 4 3 2 1 1 2 6 5 3 4 7 6 5 4 5 6 4 3 6 8 8 5 5 7 6 9 11 6 5 5 5 3 3 3 4 5 4 1 1 5 6 2 1 4 5 5 4 3 4 5 3 4 10 10 9 8 9 11 11
18 17 17 17 17 13 7 9 12 7 5 7 8 11 9 3 3 4 1 3 3 3 2 1 1 2 2 2 3 5 4 3 2 2 3 2 1 2 3 2 5 4 1 1 3 4 2 1 4 5 5 6 6 5 8 12 9 2 4 4 4 4 3 3 2 3 3 2 7 7 6 4 3 5 4 2 2 4 5 4 5 9 10 9 8 9 11 10
19 19 17 15 14 10 5 6 6 2 4 8 9 8 4 3 4 4 2 4 2 3 5 4 3 4 4 2 3 4 4 3 1 4 4 2 2 2 2 2 3 3 1 4 3 3 3 1 1 3 6 5 4 3 4 7 5 2 3 3 3 2 3 4 4 3 3 5 6 5 5 5 3 5 4 4 6 6 5 6 8 11 11 10 9 10 10 10
21 21 18 16 14 12 9 6 3 3 7 8 7 4 4 3 1 2 3 4 1 3 4 3 4 6 8 4 3 3 3 2 2 4 4 3 4 4 3 3 4 2 2 4 3 4 3 3 4 4 4 5 5 2 3 2 1 4 3 4 3 1 3 2 3 0 2 6 5 3 3 3 4 6 4 6 9 7 6 7 9 11 11 10 10 11 11 11
23 21 18 15 13 16 13 6 6 8 8 4 3 4 6 4 2 3 3 3 1 3 3 3 6 8 7 5 3 3 1 1 2 3 2 2 3 4 2 1 6 5 1 3 2 1 3 5 3 1 3 4 8 4 2 1 3 5 5 4 4 2 2 1 3 1 3 6 3 3 3 2 4 4 4 7 9 9 8 8 9 9 10 9 9 10 11 11
22 18 14 12 12 15 11 5 4 5 3 0 3 5 5 2 3 2 2 2 2 4 4 3 7 8 4 2 3 3 2 2 0 4 3 2 3 3 2 1 4 4 3 2 2 3 1 4 3 4 2 2 7 8 6 4 4 4 4 5 4 4 4 3 3 3 4 4 3 2 2 2 2 3 4 6 7 7 5 3 6 6 6 6 7 9 10 11
19 13 11 11 10 10 9 8 6 3 2 2 6 5 4 3 3 1 0 3 2 4 6 5 4 4 4 3 3 3 0 1 2 4 3 2 4 4 4 4 4 3 4 3 2 2 2 4 7 4 1 3 4 5 4 6 3 2 3 5 2 4 5 2 3 4 3 1 2 2 2 3 3 4 4 4 5 3 2 2 5 4 2 2 4 5 6 7
16 10 7 7 5 3 3 9 8 5 3 5 6 2 3 3 2 2 2 2 1 3 6 7 3 3 5 4 3 5 3 0 2 3 1 1 3 4 3 4 4 5 5 4 3 1 2 4 6 4 3 4 5 5 4 4 3 1 2 3 4 4 7 4 2 0 3 1 2 1 2 4 3 3 4 4 5 3 2 2 5 4 4 5 4 4 4 3
15 9 3 3 2 3 5 9 9 5 3 6 5 2 3 2 3 4 1 1 2 2 3 3 3 2 3 3 3 6 5 2 2 1 1 1 2 3 2 2 3 6 7 4 2 3 3 3 6 3 4 6 3 3 1 1 4 4 3 5 2 2 4 4 2 2 4 2 4 1 1 3 1 1 3 3 3 4 5 3 5 6 6 6 7 7 8 8
13 8 3 1 2 7 8 8 7 4 4 5 2 1 2 2 2 3 1 2 1 1 3 1 2 1 2 2 4 5 4 2 2 1 2 1 2 3 2 1 1 4 7 6 2 2 3 2 6 3 4 6 3 2 2 5 1 3 4 4 3 2 1 1 2 1 1 2 3 3 2 2 3 3 2 1 1 4 6 6 7 7 5 6 7 8 9 9
7 3 3 2 4 10 9 7 3 3 5 4 1 1 2 2 3 3 2 1 0 1 1 3 2 2 2 1 3 5 3 1 0 0 1 1 2 2 1 1 1 1 3 7 5 2 2 1 5 4 4 4 5 3 1 3 3 2 2 2 2 3 4 2 2 3 3 2 2 2 3 2 4 4 3 1 3 5 5 5 7 7 5 5 5 6 6 5
2 2 2 2 6 11 8 4 2 4 4 2 2 2 1 2 3 5 4 2 1 1 1 3 1 1 3 3 3 3 2 1 2 1 1 1 1 0 2 2 1 2 3 4 4 1 3 2 3 5 5 2 2 2 2 3 2 1 2 2 1 1 2 2 1 1 3 3 2 1 1 5 5 2 2 1 4 6 5 6 6 5 6 6 5 6 5 3
2 3 2 3 8 13 6 3 2 3 3 1 1 1 2 1 2 5 5 3 3 3 2 3 2 2 3 2 3 2 2 1 0 1 1 1 1 1 2 3 1 1 3 4 3 2 2 2 2 2 5 2 3 5 1 1 2 3 4 4 3 2 4 2 1 1 2 3 3 4 2 6 4 1 1 2 5 6 7 8 6 6 7 7 7 6 4 2
2 2 3 0 11 10 3 3 1 1 2 1 1 2 2 2 1 3 4 1 2 2 1 1 2 3 3 3 3 2 2 2 1 1 0 1 1 2 2 3 1 3 2 1 1 1 3 3 2 1 2 3 7 7 2 2 1 1 1 3 4 3 4 5 3 3 2 2 2 3 1 5 3 0 1 4 6 7 7 8 7 6 7 8 6 4 4 4
3 2 2 5 11 4 4 2 2 3 1 2 2 2 1 1 1 2 3 2 1 1 2 1 1 1 2 2 1 2 2 1 1 1 0 1 2 2 4 5 1 3 3 2 2 1 2 3 1 2 4 4 6 6 4 3 4 3 3 2 2 2 3 5 5 4 3 3 2 2 1 5 2 2 2 3 6 7 6 5 7 6 5 7 7 3 4 5
3 1 2 6 8 1 3 1 2 2 2 3 3 2 2 1 1 1 2 2 2 0 1 1 1 1 1 2 1 1 2 0 1 2 1 2 2 3 6 6 1 2 1 3 3 0 1 1 1 1 3 4 5 5 5 5 4 2 2 4 3 1 4 4 2 3 2 3 4 4 3 4 0 3 2 3 7 8 6 5 6 6 6 7 8 7 7 7
2 1 1 1 3 1 1 3 3 2 2 2 3 4 4 1 2 1 1 3 2 0 0 2 2 1 1 2 2 2 2 0 0 2 2 2 3 4 7 8 3 3 1 1 3 2 2 1 2 3 3 3 2 2 3 2 2 1 2 5 5 2 3 4 3 4 1 3 2 4 4 3 3 5 4 4 7 8 7 6 6 6 6 7 8 7 6 6
2 2 1 2 2 3 1 1 4 3 1 1 1 3 2 2 4 2 2 1 2 1 1 2 3 2 2 4 3 3 3 2 1 2 3 3 3 2 6 8 5 4 3 4 6 4 4 2 1 4 4 4 5 5 4 2 1 1 4 6 6 5 3 3 5 3 3 2 1 3 4 3 5 6 5 5 6 7 6 6 6 6 6 6 8 7 5 5
2 1 2 2 1 2 1 2 3 3 1 2 1 2 2 2 4 3 1 0 1 2 2 2 4 4 2 4 3 2 3 4 4 3 3 3 2 4 7 6 5 8 5 4 5 3 5 3 2 5 3 1 3 4 4 1 4 2 3 6 7 8 6 4 4 3 5 4 2 5 3 6 6 6 6 6 6 6 5 6 6 5 5 6 7 7 7 8
2 1 2 3 1 1 1 1 2 4 3 1 1 1 2 3 3 2 2 2 3 3 2 2 5 4 2 2 1 2 4 4 4 3 3 4 3 5 8 5 4 9 6 3 3 3 5 2 1 4 3 4 4 4 3 3 4 4 4 5 7 8 6 4 2 2 4 5 3 3 4 5 5 7 7 6 7 7 6 6 6 6 6 7 8 9 9 9
2 2 1 1 2 3 1 0 3 5 4 2 1 1 1 2 3 3 3 2 4 4 2 1 5 4 3 2 2 1 2 2 3 3 2 3 3 2 4 4 5 7 6 3 3 2 4 2 2 3 3 5 6 6 4 5 4 3 6 7 7 7 6 6 2 1 3 4 4 5 7 4 1 4 7 7 7 7 7 7 7 8 8 8 8 9 9 8
2 2 1 2 3 1 1 2 3 4 3 3 2 1 0 1 3 4 2 1 1 3 2 2 5 5 1 4 3 2 0 3 2 3 1 2 2 1 1 2 4 7 8 3 2 2 3 2 1 3 3 4 6 6 5 5 5 4 6 9 10 9 7 6 4 2 2 4 6 8 7 3 4 4 8 8 7 8 8 8 8 8 7 8 9 10 9 9
2 1 2 4 3 3 2 2 3 3 3 3 1 1 1 1 2 3 3 2 3 2 1 1 5 4 2 4 3 3 2 5 5 6 5 4 2 2 2 3 2 4 7 4 2 3 3 3 1 3 3 2 4 5 5 4 5 5 7 11 11 7 4 4 3 3 3 2 8 7 5 1 2 5 8 8 8 9 9 8 8 7 8 9 9 9 10 9
1 1 2 5 3 3 2 2 3 3 1 1 2 2 2 2 3 1 1 3 1 2 3 2 1 1 3 4 3 5 4 4 7 8 6 4 4 4 3 3 2 2 3 2 2 2 2 3 2 3 2 2 4 4 5 4 3 2 4 7 7 4 3 4 3 5 6 1 4 4 3 4 4 6 8 8 9 9 9 7 6 7 9 9 10 10 10 10
Wind_Direction
354 352 350 348 346 345 345 344 343 344 345 344 344 345 344 345 344 345 344 343 343 339 336 333 330 330 328 326 327 328 326 321 317 311 283 290 310 300 261 258 187 168 153 140 151 143 122 119 127 128 126 112 44 141 153 190 88 67 93 118 214 210 196 189 187 195 219 302 305 324 360 356 323 330 328 47 28 7 24 35 49 34 44 86 118 130 138 143
352 352 350 348 346 345 345 344 343 343 343 343 344 343 342 344 343 345 344 343 343 341 340 335 332 331 328 329 330 332 326 319 312 288 274 334 351 314 239 204 180 172 158 144 156 149 134 147 139 121 106 96 334 103 152 228 117 111 113 154 229 201 207 196 188 238 275 291 301 313 351 353 308 306 317 121 15 335 18 63 88 80 84 98 118 130 140 144
353 353 350 348 346 345 346 345 344 342 342 343 343 342 341 342 342 343 342 342 342 341 341 337 336 332 331 333 334 333 325 320 313 278 282 21 2 329 200 181 180 177 168 154 161 160 154 161 147 126 87 97 201 115 149 211 165 171 119 203 242 200 222 235 220 252 260 273 302 308 334 345 300 278 300 185 146 308 245 179 132 130 133 129 132 139 145 147
353 351 349 349 347 346 346 345 344 342 343 342 343 342 340 340 341 340 340 341 339 340 340 340 339 334 336 339 338 335 329 334 310 283 3 353 350 341 178 163 171 176 170 159 167 162 141 143 138 114 93 104 315 97 151 221 200 184 156 208 231 168 229 266 251 253 265 275 284 298 327 325 297 290 50 135 146 249 238 221 198 166 150 145 146 148 151 151
351 349 350 349 347 346 345 345 344 343 344 343 342 341 339 338 338 338 339 338 338 338 338 338 339 336 339 343 347 339 341 22 283 310 356 344 350 347 165 145 159 171 166 163 162 142 124 128 120 72 88 113 67 93 206 226 158 170 240 233 235 234 276 278 272 267 268 289 294 300 319 303 302 322 208 156 192 237 228 212 204 172 154 152 151 152 154 152
348 348 348 347 347 346 344 344 343 344 344 342 341 339 339 337 336 337 336 336 336 337 337 338 339 338 342 349 354 350 14 336 286 317 334 330 343 335 158 146 154 160 156 154 148 137 118 107 106 105 100 103 153 159 235 236 146 212 265 265 255 249 257 273 278 281 282 318 298 288 303 297 325 313 258 184 217 248 258 173 153 159 158 151 149 154 157 159
346 346 346 345 346 344 343 343 341 342 341 339 338 336 336 334 334 335 332 334 335 336 338 337 339 341 346 355 359 21 72 258 285 313 318 317 336 178 159 155 157 158 157 147 141 141 119 108 124 136 110 103 164 188 228 259 126 222 262 306 268 235 226 250 261 279 289 275 266 280 330 300 289 294 275 201 235 261 14 116 135 144 150 148 152 159 160 163
343 342 343 343 343 343 342 341 340 340 338 336 336 334 333 332 332 332 331 333 334 335 338 336 340 346 349 358 22 4 300 255 295 322 317 314 355 162 162 163 166 166 165 158 152 147 124 126 158 146 116 190 177 169 206 53 356 229 247 288 269 245 235 254 268 279 282 262 260 294 293 276 241 232 244 239 253 271 97 115 134 141 148 155 159 161 159 163
340 340 341 342 341 341 340 339 339 338 336 334 334 332 330 330 330 331 330 329 331 331 334 337 337 347 352 2 57 349 267 260 332 1 4 41 151 164 165 168 174 172 166 169 160 150 148 161 186 170 153 194 175 169 187 159 256 228 224 250 255 269 270 275 276 271 278 270 266 301 280 283 241 194 258 264 251 128 127 124 139 146 155 162 161 163 162 171
340 340 342 341 340 339 337 337 336 334 334 332 331 329 326 328 328 328 326 323 326 325 330 336 332 344 350 360 72 340 273 296 16 49 58 88 142 166 171 171 178 177 165 170 168 162 166 179 182 161 150 158 168 184 149 163 220 220 211 251 250 267 280 269 268 271 287 283 237 250 272 288 228 172 265 270 143 140 133 130 151 153 161 166 162 165 167 181
340 339 339 339 338 336 336 335 334 333 331 329 327 324 323 324 324 324 320 317 319 317 322 329 329 351 16 51 107 237 272 312 84 68 72 91 110 160 181 185 186 186 173 169 191 187 174 176 163 119 171 177 158 184 182 196 238 262 259 288 276 287 293 247 255 269 283 282 223 196 263 301 44 191 240 226 144 149 141 145 161 158 165 165 162 170 174 190
339 338 336 338 337 335 335 333 333 331 328 326 323 321 322 321 324 322 313 310 311 307 307 318 326 28 51 67 200 240 263 242 226 34 87 173 338 231 215 223 212 206 198 183 209 207 198 190 162 141 224 162 128 23 213 216 288 288 275 298 296 337 325 262 254 261 185 253 211 149 287 311 252 221 250 200 141 147 144 154 165 159 164 160 164 175 181 194
342 338 337 336 335 335 334 332 331 329 327 325 323 321 321 321 324 319 307 303 300 294 291 300 307 118 54 220 240 262 270 255 258 271 268 271 284 282 252 237 232 229 222 211 210 217 213 210 177 180 195 115 178 277 153 234 357 296 288 171 310 356 328 284 292 335 146 238 192 145 278 292 261 258 269 199 146 143 148 164 172 162 159 162 170 178 188 195
342 338 336 335 335 334 333 332 331 328 327 325 324 323 323 326 324 312 300 294 286 273 268 263 188 134 128 249 270 286 281 261 258 258 257 261 268 271 250 228 227 229 230 224 223 304 224 212 164 154 216 111 194 310 353 357 14 316 298 249 353 17 287 301 306 360 342 270 152 141 234 268 275 286 250 193 158 154 162 173 178 173 169 170 177 186 197 200
340 337 336 335 334 334 333 333 331 328 328 327 325 326 327 327 319 307 297 282 265 218 188 170 166 137 28 279 282 290 269 252 256 259 254 248 242 240 236 219 220 221 225 226 224 321 223 198 101 74 247 306 65 15 344 346 4 17 310 295 346 142 264 309 310 80 288 289 70 113 226 270 278 289 219 191 170 167 170 176 183 183 182 177 185 193 203 209
337 335 335 334 333 334 333 331 331 329 329 329 329 331 331 329 325 315 303 246 165 163 162 157 182 159 76 286 295 297 247 254 272 285 255 231 227 222 212 200 206 210 210 220 213 243 194 173 159 143 208 315 98 82 11 355 342 360 52 265 298 278 282 318 313 333 302 285 10 53 236 286 282 292 281 202 184 179 178 185 189 188 188 184 191 197 203 210
333 334 334 333 333 333 332 332 331 330 331 331 332 335 338 354 5 14 70 108 135 156 148 137 184 179 263 271 281 284 275 280 302 325 297 231 223 206 167 157 155 159 164 147 170 203 191 166 206 157 53 22 134 106 57 299 293 320 12 265 267 260 264 313 296 318 19 48 5 353 235 256 272 291 322 208 192 183 188 197 196 192 191 189 196 202 205 198
331 332 331 332 332 332 332 331 330 331 332 330 333 343 15 55 47 79 105 108 115 120 126 303 169 192 273 262 276 292 307 317 312 309 298 252 215 198 163 117 120 114 115 85 121 146 156 248 79 54 348 58 121 115 159 225 204 203 237 125 287 283 236 224 251 300 6 21 348 338 300 256 270 285 273 218 200 191 202 202 200 198 194 192 197 202 200 161
330 331 330 331 331 330 330 328 330 333 331 330 340 22 89 81 70 93 113 116 111 115 196 224 177 186 261 250 270 299 314 314 302 291 269 217 191 186 167 96 110 103 99 72 128 163 141 57 62 128 239 174 174 168 182 201 164 161 175 164 223 280 262 216 222 271 337 353 314 295 274 263 275 285 269 228 209 204 215 206 200 203 196 195 197 197 183 143
328 329 330 330 329 328 327 326 331 331 328 335 354 84 100 56 49 28 134 176 203 217 222 202 194 234 284 276 285 313 315 314 295 278 221 177 159 152 134 76 81 73 122 148 189 208 130 135 197 202 192 179 200 198 177 175 142 142 167 205 226 252 273 237 223 259 213 279 282 261 257 270 274 279 261 220 207 212 219 210 206 206 197 195 184 176 162 142
327 328 329 329 327 326 325 326 330 329 330 346 9 73 127 67 62 326 286 256 239 226 237 229 207 228 257 255 280 3 345 331 287 270 255 221 143 139 187 131 109 140 232 160 154 65 103 163 222 205 184 180 187 181 154 145 134 139 201 276 275 246 265 276 242 257 198 166 260 274 309 287 273 274 263 199 188 215 217 206 208 206 198 192 173 160 149 147
327 327 328 328 325 324 324 327 330 328 338 9 14 57 172 129 110 265 258 291 265 218 226 236 222 241 251 253 256 249 47 312 289 283 225 198 152 168 206 128 145 203 230 103 118 77 74 212 224 199 183 159 115 125 127 134 156 140 139 248 276 257 284 297 278 284 122 149 259 304 320 286 277 276 260 196 189 216 216 205 205 202 192 184 170 161 153 156
327 327 328 327 325 324 324 329 328 323 6 351 347 113 174 358 324 279 203 292 287 225 217 225 216 240 251 264 224 173 155 217 258 287 179 161 163 181 162 150 170 166 130 146 162 164 197 243 219 183 160 141 117 123 120 106 123 154 159 195 264 266 356 289 295 327 319 239 251 283 305 280 282 295 281 232 215 233 231 215 208 198 188 178 170 167 166 164
327 328 328 325 324 324 327 331 323 219 340 328 311 171 21 348 342 323 166 270 292 279 227 205 198 223 243 253 171 166 189 196 200 255 173 154 142 154 163 171 150 145 194 182 166 177 223 237 171 131 143 161 186 175 135 154 275 249 205 207 245 244 210 236 281 338 323 307 240 248 330 297 293 320 299 285 267 260 246 216 186 166 162 155 158 169 175 172
328 328 326 326 325 326 331 334 207 328 330 320 231 55 353 344 346 141 151 350 297 289 270 199 201 224 223 189 167 170 178 208 207 214 165 158 158 137 171 173 127 190 215 166 146 198 245 235 132 120 149 165 182 217 186 180 224 296 235 212 222 223 227 242 280 15 356 334 288 89 28 297 305 319 286 309 316 285 267 182 166 151 143 146 159 172 175 172
327 325 325 326 325 330 337 328 281 330 327 305 140 334 327 336 344 156 136 29 310 285 314 180 209 216 207 154 163 164 101 261 224 193 169 173 171 140 148 175 111 206 197 146 145 215 250 198 150 157 163 150 170 238 226 167 141 302 244 204 208 212 229 246 217 97 166 266 293 59 103 268 311 324 289 308 317 304 320 163 172 152 148 159 167 174 169 166
324 323 324 323 327 338 344 292 312 323 317 174 314 314 319 334 351 159 115 29 315 269 158 312 240 176 204 173 169 155 157 276 236 182 188 180 170 134 148 175 141 200 165 117 183 240 183 157 159 159 145 148 176 243 223 154 127 256 237 178 180 199 219 223 155 160 231 262 319 19 120 239 296 291 286 306 335 339 355 164 176 162 161 165 169 173 168 166
321 322 321 318 322 328 309 290 304 303 238 307 312 309 321 335 31 149 82 48 283 285 74 324 205 148 113 163 180 187 219 252 29 238 199 169 166 122 158 195 181 183 164 134 195 241 166 168 180 162 140 172 204 211 186 155 158 241 219 166 168 183 194 180 150 184 243 348 313 304 135 206 276 277 301 339 20 349 344 313 198 178 171 166 166 167 164 165
320 319 317 316 316 314 300 274 271 269 289 309 311 316 323 333 91 102 65 114 262 357 53 338 41 43 25 105 219 272 313 341 15 292 137 158 191 120 161 201 165 164 184 167 199 228 192 190 181 156 152 203 217 203 167 167 205 227 165 138 111 112 130 132 143 163 86 56 258 259 194 197 273 288 313 5 30 326 315 309 221 189 178 170 162 155 159 165
318 314 313 315 311 313 306 265 262 272 312 320 319 321 327 359 77 69 62 236 280 352 2 357 19 318 3 67 267 268 260 294 343 95 104 144 241 60 114 139 100 121 189 291 235 232 267 216 151 149 177 199 205 198 178 185 200 155 107 91 59 46 58 72 100 103 86 272 252 232 200 189 265 286 276 266 307 289 285 282 225 195 182 176 167 153 158 166
314 312 311 305 299 302 298 272 271 292 336 330 328 328 355 56 65 92 187 245 277 331 344 359 360 336 350 358 290 264 221 255 6 121 150 137 88 63 65 75 76 82 14 314 291 300 329 10 177 218 205 177 164 205 222 214 201 111 82 86 84 320 23 40 355 49 108 257 261 228 190 163 209 261 257 265 284 273 252 245 224 203 185 176 175 164 161 173
314 313 306 293 278 261 249 253 265 292 311 326 337 359 77 72 24 161 241 286 329 333 327 328 329 330 329 323 264 245 207 202 164 142 162 142 138 175 172 164 168 90 340 256 265 328 306 227 239 268 235 176 161 225 303 328 113 124 125 100 99 306 20 31 300 38 194 254 252 198 164 154 220 245 257 290 298 283 250 236 226 213 195 180 179 173 169 178
316 315 306 292 268 248 246 259 270 277 292 317 357 37 83 90 231 219 289 324 7 310 299 298 313 308 307 333 326 279 266 180 182 142 137 109 144 199 234 175 167 143 176 216 198 310 302 299 280 258 276 196 160 182 256 250 153 148 157 146 137 138 85 265 270 266 254 268 255 191 181 227 268 260 271 299 303 291 268 236 216 214 205 189 181 175 175 184
318 317 305 287 267 257 256 250 249 263 273 13 60 64 91 135 231 227 341 304 266 303 310 310 312 309 313 352 322 315 35 7 31 125 122 99 130 206 261 273 185 148 123 148 166 179 188 315 259 190 254 190 170 196 201 162 152 168 164 140 144 158 151 199 222 206 247 272 304 289 199 180 229 261 282 301 305 301 294 224 181 200 216 195 176 176 181 189
322 318 300 282 273 273 255 218 209 220 202 85 65 75 129 198 249 109 259 270 292 320 313 316 325 342 343 313 306 332 15 286 11 80 109 146 165 191 199 212 203 143 124 161 220 176 149 256 253 241 240 157 194 223 161 115 129 209 143 111 161 188 154 155 190 176 186 242 325 313 239 206 221 264 290 318 320 325 11 88 140 162 204 155 154 189 202 203
325 324 300 273 264 284 209 180 176 188 171 81 68 90 176 205 216 148 187 269 313 314 318 331 4 38 341 315 326 340 333 99 40 40 66 193 209 202 194 204 191 163 152 165 209 173 111 265 275 309 300 210 210 215 169 154 186 187 133 170 219 174 128 119 196 115 82 141 278 297 259 294 320 295 295 334 341 353 43 110 137 109 59 64 60 22 355 349
331 337 317 263 221 149 151 151 149 157 116 80 93 182 221 218 179 173 211 322 279 301 15 5 336 16 353 323 309 319 334 28 33 10 223 297 276 209 203 224 178 185 185 161 209 203 145 267 284 300 280 267 225 184 203 194 149 127 181 210 195 88 91 112 161 7 46 207 269 332 271 293 339 283 302 340 344 356 17 56 99 79 70 78 71 60 54 54
330 336 332 332 161 158 148 139 138 126 81 74 88 226 231 211 175 192 245 346 293 337 67 163 274 357 20 325 284 295 329 12 359 336 182 248 263 189 185 214 149 219 209 169 190 238 142 280 294 269 251 293 342 98 343 332 26 140 178 174 110 122 207 89 144 153 113 218 281 326 310 259 202 225 287 347 348 3 9 27 55 59 71 78 67 65 68 76
329 346 353 5 157 161 148 138 133 74 67 73 113 242 227 235 251 240 251 329 349 81 89 222 234 355 332 268 250 285 335 44 294 309 149 187 238 192 153 186 121 319 223 159 163 224 107 134 286 278 260 303 359 32 290 300 337 34 126 114 57 138 167 164 150 162 162 175 244 314 331 272 227 219 209 242 348 18 20 31 46 41 33 39 55 61 56 76
342 83 350 333 158 157 150 133 56 50 72 114 187 205 241 250 270 270 256 229 192 200 213 216 217 303 287 273 254 275 334 94 161 190 226 226 233 324 350 312 150 32 21 99 127 130 62 100 243 283 311 353 2 315 241 199 178 107 140 182 300 80 134 154 94 92 124 145 180 177 288 267 249 227 225 302 9 29 54 68 62 51 38 26 45 66 46 35
36 91 330 328 150 153 138 68 33 56 90 129 194 213 273 268 280 287 272 215 192 231 218 192 205 228 238 283 284 273 328 346 104 134 236 279 118 122 332 307 190 81 20 42 73 135 119 125 182 300 349 8 256 262 293 100 177 170 168 180 181 135 123 137 263 300 102 126 169 161 208 268 267 255 327 35 46 48 72 88 76 64 68 52 39 60 74 53
79 97 319 35 150 154 92 47 4 63 117 163 231 227 277 303 278 282 292 284 201 240 316 194 224 223 211 233 256 279 349 333 323 40 203 283 205 171 314 307 180 119 113 131 283 209 141 115 125 261 290 254 258 268 303 9 32 104 144 149 143 126 120 135 196 233 113 110 150 122 164 269 275 83 64 70 75 70 78 93 87 77 87 85 69 64 93 86
115 96 345 139 158 151 44 49 324 5 163 256 284 243 253 275 274 291 317 345 308 302 358 303 245 240 231 246 271 334 355 329 321 4 57 342 300 268 317 303 235 92 93 158 259 292 97 86 96 284 302 303 298 304 320 358 44 39 355 39 108 147 137 143 174 174 139 155 149 100 247 266 289 68 91 97 97 87 77 85 92 87 76 80 78 53 50 61
133 100 59 152 183 264 42 155 296 339 280 314 349 318 307 234 224 304 318 314 305 346 18 292 299 325 287 311 327 302 314 324 22 358 62 49 320 306 336 326 260 96 69 192 188 189 55 79 118 81 359 341 336 336 336 349 30 55 316 329 339 95 106 117 131 92 106 205 153 134 224 259 153 104 115 103 91 79 61 58 78 83 69 62 55 37 27 37
105 81 20 204 220 298 103 177 158 161 267 354 5 325 342 332 265 255 227 273 285 172 145 282 294 301 321 342 338 315 320 221 277 350 25 22 325 324 348 344 4 80 55 148 124 107 113 135 144 139 159 187 201 252 254 266 331 342 326 341 342 7 110 147 131 89 180 246 121 142 211 240 147 128 124 109 90 78 69 60 57 64 75 80 73 56 32 34
123 101 351 325 348 53 110 174 110 121 223 65 21 322 7 350 306 282 185 231 313 7 34 309 328 5 14 11 360 330 332 320 338 35 31 347 310 304 326 333 7 41 43 61 58 77 108 82 87 124 146 188 198 226 239 201 89 357 330 346 343 326 334 101 97 104 185 172 14 224 199 160 150 143 131 117 93 83 80 66 55 53 59 74 81 75 62 56
124 122 151 161 342 20 25 358 76 97 149 132 99 334 344 324 318 325 353 328 332 3 33 8 21 38 8 359 3 313 327 350 12 35 12 328 298 301 312 320 12 11 11 51 32 58 103 62 50 96 77 307 244 263 285 61 94 85 356 349 342 332 349 69 106 159 152 121 292 262 185 142 158 151 135 126 107 96 86 66 62 66 66 72 79 82 81 71
137 158 167 153 168 167 50 360 107 100 77 105 123 6 356 344 347 337 320 330 348 15 57 8 7 26 341 326 325 301 340 12 14 356 346 351 344 335 333 328 3 7 11 37 16 72 112 91 103 105 54 6 348 334 360 80 99 84 53 18 353 348 12 70 138 196 122 127 212 219 134 133 149 140 132 130 120 109 94 80 75 73 70 71 75 76 73 68
112 114 272 34 107 162 163 57 105 88 64 26 350 16 41 358 350 302 282 346 353 356 78 55 324 327 349 10 89 30 350 42 17 324 329 11 350 355 2 329 324 360 15 26 18 72 108 88 109 115 70 20 3 356 35 85 99 65 42 26 6 0 25 56 62 321 88 124 167 126 101 85 55 119 118 106 104 102 89 80 76 70 67 70 74 70 61 56
115 145 189 58 65 82 44 42 70 72 36 360 358 348 158 47 343 305 285 114 26 329 40 66 301 294 20 47 54 34 295 153 158 280 226 68 352 48 97 257 284 339 350 359 13 22 84 105 127 100 76 4 352 355 17 63 97 81 37 19 8 6 18 31 34 7 35 106 113 98 94 51 355 78 101 94 94 95 86 81 76 67 62 67 69 64 58 50
114 163 135 105 70 352 1 37 67 82 32 3 336 297 328 340 308 301 288 227 170 206 292 319 302 299 40 44 11 314 265 178 197 244 220 171 208 210 188 210 201 345 331 331 5 8 64 116 118 76 85 324 334 346 342 18 77 71 31 11 359 1 6 348 353 351 334 119 119 109 114 111 25 86 93 82 75 76 73 71 72 67 61 62 61 59 59 55
81 63 61 103 84 352 12 52 50 84 104 271 238 263 280 270 293 332 318 311 316 201 242 241 247 315 13 13 321 290 281 226 228 246 232 199 209 215 239 254 195 197 276 308 14 15 86 116 116 91 104 281 316 338 335 5 45 17 359 355 338 322 308 309 336 355 336 323 139 144 152 141 130 117 102 81 63 61 58 50 51 61 64 62 57 55 54 48